This is the latest recevied weather packets stored in our database for station/object EA1IOS-11. If no packets are shown the sender has not sent any weather packets the latest 10 day(s).
| Time | Temp. | Humidity | Pressure | Rain* | Wind** | Luminosity | Snow |
|---|---|---|---|---|---|---|---|
| 1777345869 | 14.44° C | 97% | 1016.4 hPa | 0 mm | - | - | - |
| 1777338621 | 14.44° C | 97% | 1017.4 hPa | 0 mm | - | - | - |
| 1777335055 | 14.44° C | 96% | 1017.8 hPa | 0 mm | - | - | - |
| 1777333262 | 14.44° C | 96% | 1018 hPa | 0 mm | - | - | - |
| 1777330825 | 14.44° C | 95% | 1018.3 hPa | 0 mm | - | - | - |
| 1777327882 | 14.44° C | 95% | 1018.3 hPa | 0 mm | - | - | - |
| 1777323631 | 14.44° C | 93% | 1019 hPa | 0 mm | - | - | - |
| 1777317044 | 14.44° C | 90% | 1018.6 hPa | 0 mm | - | - | - |
| 1777315231 | 15° C | 87% | 1018.8 hPa | 0 mm | - | - | - |
| 1777314627 | 15° C | 87% | 1018.7 hPa | 0 mm | - | - | - |
| 1777310457 | 15° C | 88% | 1019 hPa | 0 mm | - | - | - |
| 1777309248 | 15° C | 88% | 1018.9 hPa | 0 mm | - | - | - |
| 1777303870 | 15° C | 88% | 1019.2 hPa | 0 mm | - | - | - |
| 1777302076 | 15° C | 88% | 1019.7 hPa | 0 mm | - | - | - |
| 1777299640 | 15° C | 88% | 1019.7 hPa | 0 mm | - | - | - |
| 1777296619 | 15.56° C | 87% | 1020.3 hPa | 0 mm | - | - | - |
| 1777294263 | 15.56° C | 85% | 1020.2 hPa | 0 mm | - | - | - |
| 1777292471 | 15.56° C | 86% | 1020.6 hPa | 0 mm | - | - | - |
| 1777286468 | 15.56° C | 85% | 1020.9 hPa | 0 mm | - | - | - |
| 1777284052 | 15.56° C | 84% | 1021.1 hPa | 0 mm | - | - | - |
| 1777282845 | 15.56° C | 84% | 1021.1 hPa | 0 mm | - | - | - |
| 1777281635 | 15° C | 85% | 1021.2 hPa | 0 mm | - | - | - |
| 1777278694 | 14.44° C | 87% | 1021.2 hPa | 0 mm | - | - | - |
| 1777277485 | 14.44° C | 89% | 1021.4 hPa | 0 mm | - | - | - |
| 1777276861 | 13.89° C | 89% | 1021.4 hPa | 0 mm | - | - | - |
* Rain latest hour (hover to see other rain measurements)
** Current wind speed in m/s (hover to see current wind gust speed)